TimeEDT,TemperatureF,Dew PointF,Humidity,Sea Level PressureIn,VisibilityMPH,Wind Direction,Wind SpeedMPH,Gust SpeedMPH,PrecipitationIn,Events,Conditions,WindDirDegrees,DateUTC
12:16 AM,68.9,60.1,73,29.74,10.0,West,6.9,-,N/A,,Clear,270,2013-07-20 04:16:00
12:36 AM,68.9,60.1,73,29.74,10.0,West,9.2,-,N/A,,Clear,270,2013-07-20 04:36:00
12:55 AM,68.9,60.1,73,29.74,10.0,West,6.9,-,N/A,,Clear,270,2013-07-20 04:55:00
1:16 AM,68.5,60.6,76,29.74,10.0,West,8.1,-,N/A,,Clear,280,2013-07-20 05:16:00
1:36 AM,68.2,60.8,77,29.74,10.0,West,8.1,-,N/A,,Clear,280,2013-07-20 05:36:00
1:55 AM,68.4,60.8,77,29.74,10.0,West,6.9,-,N/A,,Clear,280,2013-07-20 05:55:00
2:16 AM,68.2,60.4,76,29.74,10.0,West,8.1,-,N/A,,Clear,270,2013-07-20 06:16:00
2:36 AM,67.6,60.8,79,29.74,10.0,West,6.9,-,N/A,,Clear,260,2013-07-20 06:36:00
2:55 AM,67.5,61.2,80,29.74,10.0,West,9.2,-,N/A,,Clear,270,2013-07-20 06:55:00
3:16 AM,68.0,61.5,80,29.74,10.0,WSW,8.1,-,N/A,,Clear,250,2013-07-20 07:16:00
3:35 AM,67.5,61.9,82,29.74,10.0,WSW,10.4,-,N/A,,Clear,250,2013-07-20 07:35:00
3:55 AM,68.2,63.5,85,29.74,10.0,WSW,10.4,-,N/A,,Clear,240,2013-07-20 07:55:00
4:16 AM,68.2,63.7,85,29.73,10.0,WSW,9.2,-,N/A,,Clear,240,2013-07-20 08:16:00
4:36 AM,68.4,64.4,87,29.74,10.0,WSW,8.1,-,N/A,,Scattered Clouds,250,2013-07-20 08:36:00
4:55 AM,68.9,63.5,83,29.75,10.0,West,6.9,-,N/A,,Mostly Cloudy,280,2013-07-20 08:55:00
5:16 AM,69.1,62.6,80,29.75,10.0,West,8.1,-,N/A,,Overcast,280,2013-07-20 09:16:00
5:35 AM,68.2,62.2,81,29.75,10.0,WNW,6.9,-,N/A,,Mostly Cloudy,290,2013-07-20 09:35:00
5:55 AM,67.1,61.0,81,29.75,10.0,WNW,6.9,-,N/A,,Overcast,300,2013-07-20 09:55:00
6:16 AM,66.6,59.0,77,29.75,10.0,WNW,6.9,-,N/A,,Overcast,290,2013-07-20 10:16:00
6:35 AM,66.2,57.4,73,29.76,10.0,WNW,6.9,-,N/A,,Overcast,300,2013-07-20 10:35:00
6:56 AM,65.3,55.9,72,29.77,10.0,NW,9.2,16.1,N/A,,Overcast,310,2013-07-20 10:56:00
7:15 AM,64.4,56.1,74,29.77,10.0,NNW,6.9,-,N/A,,Overcast,330,2013-07-20 11:15:00
7:35 AM,64.0,55.4,73,29.78,10.0,NW,8.1,-,N/A,,Mostly Cloudy,320,2013-07-20 11:35:00
7:56 AM,63.5,55.6,75,29.80,10.0,NNW,11.5,-,N/A,,Scattered Clouds,340,2013-07-20 11:56:00
8:15 AM,63.9,55.6,74,29.81,10.0,NNW,8.1,-,N/A,,Clear,340,2013-07-20 12:15:00
8:35 AM,64.6,55.4,72,29.81,10.0,North,6.9,-,N/A,,Clear,10,2013-07-20 12:35:00
8:56 AM,64.9,55.2,71,29.83,10.0,NW,8.1,-,N/A,,Clear,320,2013-07-20 12:56:00
9:15 AM,65.5,54.9,68,29.83,10.0,NNW,5.8,-,N/A,,Clear,330,2013-07-20 13:15:00
9:35 AM,66.0,54.0,65,29.84,10.0,NNW,5.8,-,N/A,,Clear,340,2013-07-20 13:35:00
9:56 AM,65.5,53.8,66,29.85,10.0,NW,6.9,-,N/A,,Clear,310,2013-07-20 13:56:00
10:15 AM,66.4,53.8,64,29.86,10.0,WNW,5.8,-,N/A,,Clear,300,2013-07-20 14:15:00
10:36 AM,68.2,53.8,60,29.86,10.0,North,8.1,-,N/A,,Clear,350,2013-07-20 14:36:00
10:56 AM,68.7,53.2,58,29.87,10.0,NNW,6.9,-,N/A,,Clear,330,2013-07-20 14:56:00
11:15 AM,69.1,53.1,57,29.88,10.0,North,8.1,-,N/A,,Clear,360,2013-07-20 15:15:00
11:36 AM,69.3,52.7,56,29.88,10.0,North,10.4,16.1,N/A,,Clear,350,2013-07-20 15:36:00
11:56 AM,69.4,50.7,51,29.89,10.0,North,10.4,16.1,N/A,,Clear,360,2013-07-20 15:56:00
12:15 PM,70.3,51.4,51,29.89,10.0,NW,9.2,-,N/A,,Clear,320,2013-07-20 16:15:00
12:36 PM,70.2,50.2,49,29.90,10.0,NNW,5.8,-,N/A,,Clear,330,2013-07-20 16:36:00
12:56 PM,70.2,47.1,44,29.90,10.0,NW,8.1,-,N/A,,Clear,320,2013-07-20 16:56:00
1:15 PM,71.2,47.1,42,29.90,10.0,NW,8.1,-,N/A,,Clear,310,2013-07-20 17:15:00
1:36 PM,71.1,43.5,37,29.90,10.0,NW,9.2,-,N/A,,Clear,320,2013-07-20 17:36:00
1:56 PM,70.9,41.9,35,29.90,10.0,NW,10.4,-,N/A,,Clear,310,2013-07-20 17:56:00
2:15 PM,71.1,41.4,34,29.90,10.0,NW,9.2,17.3,N/A,,Clear,310,2013-07-20 18:15:00
2:36 PM,71.1,41.5,34,29.91,10.0,NW,9.2,-,N/A,,Clear,310,2013-07-20 18:36:00
2:56 PM,71.6,41.9,34,29.91,10.0,NW,9.2,-,N/A,,Clear,310,2013-07-20 18:56:00
3:15 PM,71.4,41.7,34,29.91,10.0,NW,9.2,-,N/A,,Clear,320,2013-07-20 19:15:00
3:36 PM,72.0,44.6,37,29.90,10.0,NNW,8.1,-,N/A,,Clear,340,2013-07-20 19:36:00
3:56 PM,71.2,42.4,35,29.91,10.0,North,11.5,16.1,N/A,,Clear,360,2013-07-20 19:56:00
4:15 PM,71.6,42.4,35,29.91,10.0,North,9.2,-,N/A,,Clear,360,2013-07-20 20:15:00
4:36 PM,70.9,45.0,39,29.92,10.0,North,9.2,-,N/A,,Clear,360,2013-07-20 20:36:00
4:56 PM,70.7,43.0,37,29.92,10.0,North,10.4,-,N/A,,Clear,350,2013-07-20 20:56:00
5:15 PM,70.5,44.1,39,29.92,10.0,North,12.7,16.1,N/A,,Clear,350,2013-07-20 21:15:00
5:36 PM,70.7,42.8,36,29.92,10.0,NNW,9.2,-,N/A,,Clear,340,2013-07-20 21:36:00
5:56 PM,69.8,43.5,39,29.92,10.0,NW,6.9,-,N/A,,Clear,320,2013-07-20 21:56:00
6:15 PM,69.3,43.5,39,29.93,10.0,NNW,9.2,-,N/A,,Clear,330,2013-07-20 22:15:00
6:36 PM,68.2,41.4,38,29.93,10.0,NNW,9.2,17.3,N/A,,Clear,330,2013-07-20 22:36:00
6:56 PM,67.6,43.2,41,29.94,10.0,NNW,13.8,18.4,N/A,,Clear,330,2013-07-20 22:56:00
7:15 PM,66.7,43.7,43,29.94,10.0,NW,11.5,16.1,N/A,,Clear,320,2013-07-20 23:15:00
7:36 PM,65.8,44.4,46,29.94,10.0,NNW,8.1,-,N/A,,Clear,330,2013-07-20 23:36:00
7:55 PM,65.1,45.5,49,29.94,10.0,NNW,9.2,-,N/A,,Clear,330,2013-07-20 23:55:00
8:16 PM,64.4,45.9,51,29.94,10.0,NNW,6.9,-,N/A,,Clear,330,2013-07-21 00:16:00
8:36 PM,62.8,45.5,53,29.94,10.0,NNW,6.9,-,N/A,,Clear,340,2013-07-21 00:36:00
8:55 PM,61.9,45.3,55,29.95,10.0,NNW,8.1,-,N/A,,Clear,340,2013-07-21 00:55:00
9:16 PM,61.0,46.6,59,29.96,10.0,North,8.1,-,N/A,,Clear,350,2013-07-21 01:16:00
9:36 PM,60.1,47.5,63,29.97,10.0,North,8.1,-,N/A,,Clear,360,2013-07-21 01:36:00
9:55 PM,59.0,48.4,68,29.98,10.0,North,8.1,-,N/A,,Clear,360,2013-07-21 01:55:00
10:16 PM,58.6,48.0,68,29.99,10.0,North,6.9,-,N/A,,Clear,350,2013-07-21 02:16:00
10:36 PM,57.7,47.8,70,30.00,10.0,NNW,10.4,-,N/A,,Clear,340,2013-07-21 02:36:00
10:55 PM,57.2,46.9,69,30.00,10.0,North,8.1,-,N/A,,Clear,350,2013-07-21 02:55:00
11:16 PM,56.3,48.2,74,30.01,10.0,NNW,8.1,-,N/A,,Clear,330,2013-07-21 03:16:00
11:36 PM,55.6,47.5,74,30.01,10.0,NNW,8.1,-,N/A,,Clear,330,2013-07-21 03:36:00
11:55 PM,55.8,47.3,73,30.02,10.0,NNW,9.2,-,N/A,,Clear,340,2013-07-21 03:55:00